Weather History for Milton, FL

Change the Weather History Date:

Monday, March 19, 2012

  Actual Average (KNSE) Record (KNSE)
Temperature  
Mean Temperature 69 °F -  
Max Temperature 82 °F 69 °F 88 °F (2011)
Min Temperature 57 °F 49 °F 42 °F (2014)
Cooling Degree Days 4    
Growing Degree Days 19 (Base 50)    
Moisture  
Dew Point 60 °F    
Average Humidity 87    
Maximum Humidity 100    
Minimum Humidity 45    
Precipitation  
Precipitation 0.00 in - - ()
Sea Level Pressure  
Sea Level Pressure 30.10 in    
Wind  
Wind Speed 3 mph (SE)    
Max Wind Speed 13 mph    
Max Gust Speed 17 mph    
Visibility 5 miles    
Events Fog    
Averages and records for this station are not official NWS values.
T = Trace of Precipitation, MM = Missing Value Source: NWS Daily Summary

Daily Weather History Graph

Daily Weather History Graph

Search for Another Location

Airport:

Trip Planner

Search our weather history database for the weather conditions in past years. The results will help you decide how hot, cold, wet, or windy it might be!

Date:

Astronomy

Mar. 19, 2012 Rise Set
Actual Time 6:52 AM CDT 6:59 PM CDT
Civil Twilight 6:28 AM CDT 7:23 PM CDT
Nautical Twilight 6:00 AM CDT 7:51 PM CDT
Astronomical Twilight 5:32 AM CDT 8:19 PM CDT
Moon 4:54 AM CDT (3/19) 4:35 PM CDT (3/19)
Length of Visible Light 12h 54m
Length of Day
12h 06m
Waning Crescent, 8% of the Moon is Illuminated
Mar 19
Waning Crescent
Mar 22
New
Mar 30
First Quarter
Apr 6
Full
Apr 13
Last Quarter

Hourly Weather History & Observations

Time (CDT) Temp. Heat Index Dew Point Humidity Pressure Visibility Wind Dir Wind Speed Gust Speed Precip Events Conditions
12:35 AM 62.6 °F - 60.8 °F 94% 30.17 in 10.0 mi Calm Calm - N/A   Scattered Clouds
12:44 AM 64.4 °F - 62.6 °F 94% 30.17 in 2.0 mi Calm Calm - N/A   Mostly Cloudy
12:47 AM 62.6 °F - 62.6 °F 100% 30.17 in 0.8 mi Calm Calm - N/A   Mist
12:56 AM 62.1 °F - 62.1 °F 100% 30.13 in 0.2 mi Calm Calm - N/A Fog Fog
1:42 AM 62.6 °F - 60.8 °F 94% 30.15 in 1.0 mi ENE 5.8 mph - N/A   Mist
1:56 AM 61.0 °F - 60.1 °F 97% 30.11 in 0.5 mi ENE 4.6 mph - N/A Fog Fog
2:08 AM 60.8 °F - 60.8 °F 100% 30.14 in 1.5 mi East 3.5 mph - N/A   Overcast
2:26 AM 60.8 °F - 60.8 °F 100% 30.13 in 0.5 mi Calm Calm - N/A Fog Fog
2:56 AM 61.0 °F - 60.1 °F 97% 30.09 in 0.2 mi Calm Calm - N/A Fog Fog
3:56 AM 57.9 °F - 57.0 °F 97% 30.08 in 0.5 mi Calm Calm - N/A Fog Fog
4:56 AM 59.0 °F - 57.9 °F 96% 30.08 in 0.8 mi NE 3.5 mph - N/A   Mist
5:00 AM 57.2 °F - 57.2 °F 100% 30.12 in 2.5 mi NE 3.5 mph - N/A   Overcast
5:07 AM 57.2 °F - 57.2 °F 100% 30.12 in 6.0 mi Calm Calm - N/A   Overcast
5:21 AM 59.0 °F - 57.2 °F 94% 30.12 in 1.5 mi Calm Calm - N/A   Overcast
5:30 AM 59.0 °F - 57.2 °F 94% 30.12 in 0.5 mi Calm Calm - N/A Fog Fog
5:56 AM 57.9 °F - 57.0 °F 97% 30.09 in 0.5 mi Calm Calm - N/A Fog Fog
6:08 AM 57.2 °F - 57.2 °F 100% 30.13 in 1.0 mi ENE 3.5 mph - N/A   Mist
6:15 AM 57.2 °F - 57.2 °F 100% 30.13 in 0.5 mi ENE 3.5 mph - N/A Fog Fog
6:25 AM 57.2 °F - 57.2 °F 100% 30.13 in 2.0 mi East 4.6 mph - N/A   Overcast
6:33 AM 57.2 °F - 57.2 °F 100% 30.13 in 4.0 mi East 3.5 mph - N/A   Overcast
6:49 AM 59.0 °F - 57.2 °F 94% 30.13 in 1.8 mi ENE 3.5 mph - N/A   Overcast
6:56 AM 59.0 °F - 57.9 °F 96% 30.10 in 0.8 mi Calm Calm - N/A   Overcast
7:12 AM 59.0 °F - 57.2 °F 94% 30.14 in 2.0 mi Calm Calm - N/A   Overcast
7:20 AM 59.0 °F - 57.2 °F 94% 30.14 in 4.0 mi Calm Calm - N/A   Overcast
7:56 AM 60.1 °F - 59.0 °F 96% 30.11 in 10.0 mi Calm Calm - N/A   Mostly Cloudy
8:08 AM 60.8 °F - 59.0 °F 94% 30.15 in 10.0 mi ESE 3.5 mph - N/A   Scattered Clouds
8:56 AM 64.0 °F - 62.1 °F 93% 30.12 in 10.0 mi SSE 3.5 mph - N/A   Scattered Clouds
10:56 AM 75.9 °F - 60.1 °F 58% 30.12 in 10.0 mi SSE 12.7 mph - N/A   Clear
11:56 AM 79.0 °F - 57.0 °F 47% 30.12 in 10.0 mi South 10.4 mph - N/A   Clear
12:56 PM 81.0 °F 81.1 °F 57.9 °F 45% 30.10 in 10.0 mi SSE 8.1 mph - N/A   Clear
1:56 PM 81.0 °F 81.3 °F 59.0 °F 47% 30.08 in 10.0 mi South 11.5 mph 17.3 mph N/A   Clear
2:56 PM 78.1 °F - 60.1 °F 54% 30.06 in 10.0 mi SSW 8.1 mph - N/A   Clear
3:56 PM 80.1 °F 81.1 °F 61.0 °F 52% 30.05 in 10.0 mi South 8.1 mph 16.1 mph N/A   Clear
4:56 PM 78.1 °F - 63.0 °F 60% 30.05 in 10.0 mi South 10.4 mph - N/A   Clear
5:56 PM 75.0 °F - 64.0 °F 69% 30.04 in 10.0 mi South 6.9 mph - N/A   Clear
6:56 PM 71.1 °F - 64.0 °F 78% 30.04 in 10.0 mi South 5.8 mph - N/A   Clear
7:56 PM 69.1 °F - 63.0 °F 81% 30.04 in 10.0 mi SSE 5.8 mph - N/A   Clear
8:56 PM 66.9 °F - 63.0 °F 87% 30.04 in 10.0 mi SE 4.6 mph - N/A   Clear
9:56 PM 66.0 °F - 64.0 °F 93% 30.04 in 10.0 mi SE 4.6 mph - N/A   Clear
10:56 PM 64.9 °F - 63.0 °F 93% 30.03 in 10.0 mi SE 3.5 mph - N/A   Clear
11:56 PM 64.0 °F - 62.1 °F 93% 30.01 in 10.0 mi ESE 4.6 mph - N/A   Clear